Terminal Aerodrome Forecast
Issued by NWS Twin Cities, MN

Home | Current Version | Previous Version | Text Only | Print | Product List | Glossary Off
Versions: 1 2 3 4 5 6 7 8 9 10 11 12 13 14 15 16 17

000
FTUS43 KMPX 251732
TAFEAU
TAF
KEAU 251732Z 2518/2618 26018G27KT P6SM OVC025
     FM260100 28015G22KT P6SM BKN040
     FM260600 29010KT P6SM SKC
     FM261400 31010G16KT P6SM SCT025=

USA.gov is the U.S. government's official web portal to all federal, state and local government web resources and services.